Weather History for Sheldon, IA

Change the Weather History Date:

Tuesday, October 22, 2013

  Actual Average Record
Temperature  
Mean Temperature 36 °F -  
Max Temperature 39 °F 60 °F 80 °F (1963)
Min Temperature 32 °F 37 °F 16 °F (1976)
Degree Days  
Heating Degree Days 30    
Moisture  
Dew Point 31 °F    
Average Humidity 84    
Maximum Humidity 100    
Minimum Humidity 61    
Precipitation  
Precipitation 0.04 in - - ()
Sea Level Pressure  
Sea Level Pressure 30.00 in    
Wind  
Wind Speed 7 mph (NNE)    
Max Wind Speed 12 mph    
Max Gust Speed 18 mph    
Visibility 9 miles    
Events Rain , Snow    
Averages and records for this station are not official NWS values.
T = Trace of Precipitation, MM = Missing Value Source: NWS Daily Summary

Daily Weather History Graph

Daily Weather History Graph

Search for Another Location

Airport:

Trip Planner

Search our weather history database for the weather conditions in past years. The results will help you decide how hot, cold, wet, or windy it might be!

Date:

Astronomy

Oct. 22, 2013 Rise Set
Actual Time 7:45 AM CDT 6:28 PM CDT
Civil Twilight 7:16 AM CDT 6:57 PM CDT
Nautical Twilight 6:43 AM CDT 7:31 PM CDT
Astronomical Twilight 6:10 AM CDT 8:03 PM CDT
Moon 9:05 PM CDT (10/22) 11:19 AM CDT (10/22)
Length of Visible Light 11h 40m
Length of Day
10h 42m
Waning Gibbous, 86% of the Moon is Illuminated
Oct 22
Waning Gibbous
Oct 26
Last Quarter
Nov 3
New
Nov 9
First Quarter
Nov 17
Full

Hourly Weather History & Observations

Time (CDT) Temp. Windchill Dew Point Humidity Pressure Visibility Wind Dir Wind Speed Gust Speed Precip Events Conditions
12:15 AM 39.2 °F 35.0 °F 30.2 °F 70% 29.91 in 10.0 mi ENE 5.8 mph - N/A   Overcast
12:35 AM 39.2 °F 35.0 °F 30.2 °F 70% 29.91 in 10.0 mi ENE 5.8 mph - N/A   Overcast
12:55 AM 39.2 °F 34.2 °F 32.0 °F 75% 29.91 in 10.0 mi ENE 6.9 mph - N/A   Overcast
1:15 AM 37.4 °F 32.1 °F 30.2 °F 75% 29.91 in 10.0 mi ENE 6.9 mph - N/A   Overcast
1:35 AM 37.4 °F 30.8 °F 30.2 °F 75% 29.92 in 10.0 mi ENE 9.2 mph - N/A   Overcast
1:55 AM 37.4 °F 32.1 °F 30.2 °F 75% 29.92 in 10.0 mi ENE 6.9 mph 16.1 mph N/A   Overcast
2:15 AM 37.4 °F 30.3 °F 28.4 °F 70% 29.92 in 10.0 mi ENE 10.4 mph - N/A   Overcast
2:35 AM 35.6 °F 28.6 °F 30.2 °F 81% 29.93 in 4.0 mi ENE 9.2 mph 16.1 mph N/A Snow Light Snow
2:55 AM 33.8 °F 26.4 °F 33.8 °F 100% 29.93 in 2.0 mi ENE 9.2 mph - N/A Snow Light Snow
3:15 AM 33.8 °F 26.4 °F 33.8 °F 100% 29.93 in 2.0 mi ENE 9.2 mph - N/A Snow Light Snow
3:35 AM 33.8 °F 27.7 °F 33.8 °F 100% 29.93 in 3.0 mi ENE 6.9 mph - N/A Snow Light Snow
3:55 AM 33.8 °F 27.7 °F 33.8 °F 100% 29.93 in 2.0 mi ENE 6.9 mph - 0.03 in Snow Light Snow
4:15 AM 33.8 °F 27.7 °F 33.8 °F 100% 29.92 in 4.0 mi ENE 6.9 mph - N/A Snow Light Snow
4:35 AM 33.8 °F 27.0 °F 33.8 °F 100% 29.91 in 5.0 mi ENE 8.1 mph - N/A Snow Light Snow
4:55 AM 33.8 °F 27.0 °F 33.8 °F 100% 29.91 in 7.0 mi ENE 8.1 mph - N/A Snow Light Snow
5:15 AM 33.8 °F 27.7 °F 33.8 °F 100% 29.91 in 9.0 mi ENE 6.9 mph - N/A Snow Light Snow
5:35 AM 33.8 °F 27.0 °F 33.8 °F 100% 29.90 in 10.0 mi East 8.1 mph - N/A   Overcast
5:55 AM 33.8 °F 26.4 °F 33.8 °F 100% 29.90 in 10.0 mi East 9.2 mph - N/A   Overcast
6:15 AM 33.8 °F 27.0 °F 33.8 °F 100% 29.91 in 10.0 mi ENE 8.1 mph - N/A   Overcast
6:35 AM 33.8 °F 27.7 °F 33.8 °F 100% 29.91 in 10.0 mi ENE 6.9 mph - N/A   Overcast
6:55 AM 33.8 °F 28.6 °F 33.8 °F 100% 29.92 in 10.0 mi NE 5.8 mph - N/A   Overcast
7:15 AM 33.8 °F 27.7 °F 33.8 °F 100% 29.92 in 10.0 mi NE 6.9 mph - N/A   Overcast
7:35 AM 33.8 °F 29.6 °F 33.8 °F 100% 29.93 in 10.0 mi NE 4.6 mph - N/A Rain Light Rain
7:55 AM 33.8 °F 29.6 °F 33.8 °F 100% 29.94 in 8.0 mi NE 4.6 mph - N/A Rain Light Rain
8:15 AM 33.8 °F 27.7 °F 33.8 °F 100% 29.95 in 7.0 mi NNE 6.9 mph - N/A Snow Light Snow
8:35 AM 32.0 °F 27.5 °F 32.0 °F 100% 29.96 in 5.0 mi NNE 4.6 mph - N/A Snow Light Snow
8:55 AM 33.8 °F 28.6 °F 33.8 °F 100% 29.97 in 4.0 mi NNE 5.8 mph - N/A Rain Light Rain
9:15 AM 33.8 °F 27.7 °F 33.8 °F 100% 29.98 in 10.0 mi NNE 6.9 mph - N/A Rain Light Rain
9:35 AM 33.8 °F 26.4 °F 33.8 °F 100% 29.99 in 7.0 mi NNE 9.2 mph - N/A Snow Light Snow
9:55 AM 33.8 °F 27.0 °F 33.8 °F 100% 30.00 in 4.0 mi NNE 8.1 mph - 0.01 in Snow Light Snow
10:15 AM 33.8 °F 28.6 °F 33.8 °F 100% 30.00 in 3.0 mi Variable 5.8 mph - N/A Snow Light Snow
10:35 AM 33.8 °F 25.8 °F 33.8 °F 100% 30.01 in 4.0 mi North 10.4 mph - N/A Snow Light Snow
10:55 AM 35.6 °F 28.0 °F 35.6 °F 100% 30.01 in 10.0 mi North 10.4 mph - N/A Snow Light Snow
11:15 AM 35.6 °F 28.0 °F 32.0 °F 87% 30.01 in 10.0 mi North 10.4 mph 16.1 mph N/A   Overcast
11:35 AM 35.6 °F 28.0 °F 32.0 °F 87% 30.02 in 10.0 mi North 10.4 mph - N/A   Overcast
11:55 AM 37.4 °F 31.4 °F 30.2 °F 75% 30.01 in 10.0 mi North 8.1 mph - N/A   Overcast
12:15 PM 37.4 °F 32.8 °F 32.0 °F 81% 30.02 in 10.0 mi NNW 5.8 mph 12.7 mph N/A   Overcast
12:35 PM 37.4 °F 31.4 °F 30.2 °F 75% 30.02 in 10.0 mi North 8.1 mph - N/A   Overcast
12:55 PM 39.2 °F 33.6 °F 30.2 °F 70% 30.03 in 10.0 mi NNW 8.1 mph - N/A   Overcast
1:15 PM 39.2 °F 33.6 °F 30.2 °F 70% 30.02 in 10.0 mi NNW 8.1 mph 15.0 mph N/A   Overcast
1:35 PM 39.2 °F 32.0 °F 30.2 °F 70% 30.02 in 10.0 mi NNW 11.5 mph - N/A   Overcast
1:55 PM 39.2 °F 33.6 °F 28.4 °F 65% 30.02 in 10.0 mi NNW 8.1 mph 18.4 mph N/A   Overcast
2:15 PM 39.2 °F 32.5 °F 28.4 °F 65% 30.02 in 10.0 mi NNW 10.4 mph - N/A   Overcast
2:35 PM 39.2 °F 33.0 °F 28.4 °F 65% 30.02 in 10.0 mi NNW 9.2 mph 17.3 mph N/A   Overcast
2:55 PM 39.2 °F 33.0 °F 28.4 °F 65% 30.02 in 10.0 mi NNW 9.2 mph 17.3 mph N/A   Overcast
3:15 PM 39.2 °F 32.0 °F 28.4 °F 65% 30.03 in 10.0 mi NNW 11.5 mph 17.3 mph N/A   Overcast
3:35 PM 39.2 °F 32.5 °F 26.6 °F 61% 30.03 in 10.0 mi NNW 10.4 mph - N/A   Overcast
3:55 PM 39.2 °F 33.6 °F 28.4 °F 65% 30.03 in 10.0 mi NW 8.1 mph 16.1 mph N/A   Overcast
4:15 PM 39.2 °F 33.0 °F 28.4 °F 65% 30.04 in 10.0 mi NW 9.2 mph - N/A   Overcast
4:35 PM 39.2 °F 33.6 °F 28.4 °F 65% 30.05 in - NW 8.1 mph 15.0 mph N/A   Overcast
4:55 PM 39.2 °F 32.0 °F 26.6 °F 61% 30.05 in 10.0 mi NNW 11.5 mph - N/A   Overcast
5:15 PM 39.2 °F 33.0 °F 26.6 °F 61% 30.06 in 10.0 mi North 9.2 mph 15.0 mph N/A   Overcast
5:35 PM 39.2 °F 33.6 °F 26.6 °F 61% 30.06 in 10.0 mi NNW 8.1 mph 15.0 mph N/A   Overcast
5:55 PM 39.2 °F 33.0 °F 26.6 °F 61% 30.06 in 10.0 mi NW 9.2 mph - N/A   Overcast
6:15 PM 37.4 °F 33.8 °F 26.6 °F 65% 30.06 in 10.0 mi NW 4.6 mph - N/A   Overcast
6:35 PM 37.4 °F 32.8 °F 28.4 °F 70% 30.06 in 10.0 mi NW 5.8 mph - N/A   Overcast
6:55 PM 37.4 °F 33.8 °F 28.4 °F 70% 30.06 in 10.0 mi NW 4.6 mph - N/A   Overcast
7:15 PM 37.4 °F 34.9 °F 28.4 °F 70% 30.06 in 10.0 mi NW 3.5 mph - N/A   Overcast
7:35 PM 37.4 °F - 30.2 °F 75% 30.07 in 10.0 mi Calm Calm - N/A   Overcast
7:55 PM 37.4 °F - 32.0 °F 81% 30.07 in 10.0 mi Calm Calm - N/A   Overcast
8:15 PM 37.4 °F - 32.0 °F 81% 30.07 in 10.0 mi Calm Calm - N/A   Overcast
8:35 PM 37.4 °F 34.9 °F 32.0 °F 81% 30.07 in 10.0 mi NW 3.5 mph - N/A   Overcast
8:55 PM 35.6 °F - 32.0 °F 87% 30.07 in 10.0 mi Calm Calm - N/A   Overcast
9:35 PM 35.6 °F - 33.8 °F 93% 30.08 in 10.0 mi Calm Calm - N/A   Overcast
10:15 PM 35.6 °F - 33.8 °F 93% 30.08 in 10.0 mi Calm Calm - N/A   Overcast
10:35 PM 35.6 °F - 33.8 °F 93% 30.08 in 10.0 mi Calm Calm - N/A   Overcast
10:55 PM 35.6 °F 32.8 °F 33.8 °F 93% 30.08 in 10.0 mi WNW 3.5 mph - N/A   Overcast
11:15 PM 35.6 °F - 33.8 °F 93% 30.08 in 10.0 mi Calm Calm - N/A   Overcast
11:35 PM 35.6 °F - 33.8 °F 93% 30.07 in 10.0 mi Calm Calm - N/A   Overcast
11:55 PM 35.6 °F - 35.6 °F 100% 30.07 in 10.0 mi Calm Calm - N/A   Overcast